COSMOS 1275 DEB, 12720

Orbit data source: Space-Track

COSMOS 1275 DEB, 12720 is space debris in LEO originally from a launch on Thu, 04 Jun 1981 UTC launched from the Plesetsk Missile And Space Complex (PKMTR). Debris objects in space refer to the collection of defunct objects orbiting the Earth. Examples of debris include non-operational satellites, rocket bodies, and fragments generated from explosions, collisions, or faulty payload assembly.

Loading next visibility...
Identifier
12720, 1981-053BM
Orbit
LEO
Country
Flag of CISCIS
Related business
Manufacturer
Unknown
Mission
Spacecraft
Bus & Motor
Unknown
Mass
Unknown
Launch date (UTC)
1981-06-04 (44 years ago)
Launch vehicle
Unknown
Launch site
Plesetsk Missile And Space Complex (PKMTR)
Object type
Payload
Rocket body
Debris
Shape & HBR
Unknown shape, 0.1 m
Radar Cross Section
Small (<0.1 m²)

Expand to show TLE details & history
Last TLE update: 14 hours ago

TLE from 14 hours ago
0 COSMOS 1275 DEB
1 12720U 81053BM  25289.08352507  .00001386  00000-0  11187-2 0  9993
2 12720  83.2497 244.8435 0107797 153.1870 283.3538 13.86974730 75791
Epoch: 2025-10-16T02:00Z
TLE epoch observation values (Epoch: 2025-10-16T02:00:16.566Z)
Latitude
73.95074°
Longitude
-145.9133°
Altitude
934.542 km
Speed
7.4 km/s
True Right ascension
17h 56m 00s
True Declination
73° 51' 41"
Sunlit
Object was in daylight at epoch
Visualization orbit readout
Latitude
Unknown
Longitude
Unknown
Altitude
Unknown
Speed
Unknown
Apparent Right ascension
Unknown
Apparent Declination
Unknown
Sunlit
N/A
Visualization observer readout
Local Sidereal Time
10:29:47
Azimuth
Unknown
Elevation
Unknown
Doppler factor
Unknown
Orbital elements
Apogee altitude
1,015.22 km
Perigee altitude
857.524 km
Semi-major axis
7,314.509 km
Eccentricity
0.01078
Inclination
83.2497°
RAAN
244.8435°
Arg. of periapsis
153.187°
True anomaly
282.14827°
Mean anomaly
283.3538°
Eccentric anomaly
282.7514°
Mean motion
3.46949 °/min
Orbital period
103.76 mins
BSTAR
0.0011187
Loading maneuver chart data...
Computing Atmospheric mass density...

Documentation

Showing up to 5 results
|